Previsão horária em Almeria

Hoje, 24 Janeiro, Domingo

Tempo Temperatura Precipitação Vento Pressão Humidade
00:00 +12°C° 0 mm 10 m/s 759 mmHg 77%
01:00 +12°C° 0 mm 10 m/s 758 mmHg 77%
02:00 +12°C° 0 mm 11 m/s 757 mmHg 78%
03:00 +13°C° 0 mm 11 m/s 757 mmHg 78%
04:00 +13°C° 0 mm 11 m/s 757 mmHg 79%
05:00 +13°C° 0 mm 10 m/s 757 mmHg 80%
06:00 +13°C° 0 mm 10 m/s 757 mmHg 81%
07:00 +13°C° 0 mm 9 m/s 758 mmHg 79%
08:00 +15°C° 0 mm 9 m/s 758 mmHg 77%
09:00 +16°C° 0 mm 8 m/s 759 mmHg 76%
10:00 +17°C° 0 mm 8 m/s 759 mmHg 67%
11:00 +18°C° 0 mm 7 m/s 759 mmHg 59%
12:00 +20°C° 0 mm 7 m/s 759 mmHg 51%
13:00 +20°C° 0 mm 7 m/s 759 mmHg 52%
14:00 +20°C° 0 mm 7 m/s 759 mmHg 53%
15:00 +20°C° 0 mm 7 m/s 759 mmHg 53%
16:00 +19°C° 0 mm 6 m/s 759 mmHg 57%
17:00 +16°C° 0 mm 6 m/s 759 mmHg 61%
18:00 +15°C° 0 mm 6 m/s 759 mmHg 65%
19:00 +15°C° 0 mm 5 m/s 759 mmHg 63%
20:00 +15°C° 0 mm 4 m/s 760 mmHg 61%
21:00 +16°C° 0 mm 3 m/s 760 mmHg 59%
22:00 +14°C° 0 mm 3 m/s 760 mmHg 58%
23:00 +14°C° 0 mm 3 m/s 760 mmHg 58%

Amanhã, 25 Janeiro, Segunda-feira

Tempo Temperatura Precipitação Vento Pressão Humidade
00:00 +14°C° 0 mm 3 m/s 760 mmHg 58%
01:00 +14°C° 0 mm 3 m/s 761 mmHg 59%
02:00 +14°C° 0 mm 3 m/s 761 mmHg 60%
03:00 +13°C° 0 mm 3 m/s 761 mmHg 61%
04:00 +13°C° 0 mm 3 m/s 761 mmHg 64%
05:00 +14°C° 0 mm 2 m/s 761 mmHg 66%
06:00 +13°C° 0 mm 2 m/s 761 mmHg 69%
07:00 +14°C° 0 mm 2 m/s 762 mmHg 71%
08:00 +15°C° 0 mm 2 m/s 762 mmHg 72%
09:00 +15°C° 0 mm 2 m/s 763 mmHg 74%
10:00 +16°C° 0 mm 3 m/s 763 mmHg 71%
11:00 +17°C° 0 mm 3 m/s 763 mmHg 69%
12:00 +17°C° 0 mm 3 m/s 763 mmHg 66%
13:00 +17°C° 0 mm 3 m/s 763 mmHg 67%
14:00 +17°C° 0 mm 3 m/s 763 mmHg 68%
15:00 +17°C° 0 mm 3 m/s 762 mmHg 70%
16:00 +17°C° 0 mm 2 m/s 763 mmHg 75%
17:00 +16°C° 0 mm 1 m/s 763 mmHg 80%
18:00 +15°C° 0 mm 1 m/s 764 mmHg 86%
19:00 +15°C° 0 mm 1 m/s 764 mmHg 86%
20:00 +14°C° 0 mm 1 m/s 765 mmHg 86%
21:00 +14°C° 0 mm 1 m/s 765 mmHg 86%
22:00 +14°C° 0 mm 1 m/s 765 mmHg 86%
23:00 +13°C° 0 mm 0 m/s 766 mmHg 86%

Depois de amanhã, 26 Janeiro, Terça-feira

Tempo Temperatura Precipitação Vento Pressão Humidade
00:00 +13°C° 0 mm 0 m/s 766 mmHg 86%
01:00 +14°C° 0 mm 1 m/s 766 mmHg 85%
02:00 +14°C° 0 mm 1 m/s 765 mmHg 84%
03:00 +14°C° 0 mm 1 m/s 765 mmHg 83%
04:00 +14°C° 0 mm 1 m/s 765 mmHg 83%
05:00 +13°C° 0 mm 1 m/s 765 mmHg 83%
06:00 +13°C° 0 mm 1 m/s 765 mmHg 83%
07:00 +15°C° 0 mm 1 m/s 766 mmHg 80%
08:00 +16°C° 0 mm 1 m/s 766 mmHg 76%
09:00 +18°C° 0 mm 1 m/s 767 mmHg 73%
10:00 +18°C° 0 mm 2 m/s 767 mmHg 69%
11:00 +19°C° 0 mm 2 m/s 767 mmHg 65%
12:00 +20°C° 0 mm 2 m/s 767 mmHg 61%
13:00 +20°C° 0 mm 2 m/s 766 mmHg 62%
14:00 +20°C° 0 mm 3 m/s 766 mmHg 62%
15:00 +20°C° 0 mm 3 m/s 766 mmHg 63%
16:00 +19°C° 0 mm 3 m/s 766 mmHg 68%
17:00 +18°C° 0 mm 3 m/s 766 mmHg 74%
18:00 +17°C° 0 mm 3 m/s 766 mmHg 79%
19:00 +17°C° 0 mm 2 m/s 767 mmHg 79%
20:00 +17°C° 0 mm 2 m/s 767 mmHg 78%
21:00 +17°C° 0 mm 2 m/s 767 mmHg 77%
22:00 +17°C° 0 mm 2 m/s 767 mmHg 78%
23:00 +17°C° 0 mm 2 m/s 767 mmHg 79%

27 Janeiro, Quarta-feira

Tempo Temperatura Precipitação Vento Pressão Humidade
00:00 +16°C° 0 mm 2 m/s 767 mmHg 79%
01:00 +16°C° 0 mm 2 m/s 767 mmHg 80%
02:00 +16°C° 0 mm 2 m/s 767 mmHg 81%
03:00 +16°C° 0 mm 1 m/s 767 mmHg 81%
04:00 +16°C° 0 mm 1 m/s 766 mmHg 82%
05:00 +16°C° 0 mm 1 m/s 766 mmHg 83%
06:00 +15°C° 0 mm 1 m/s 766 mmHg 84%
07:00 +16°C° 0 mm 1 m/s 767 mmHg 80%
08:00 +18°C° 0 mm 1 m/s 767 mmHg 76%
09:00 +20°C° 0 mm 1 m/s 767 mmHg 72%
10:00 +20°C° 0 mm 1 m/s 767 mmHg 68%
11:00 +21°C° 0 mm 1 m/s 767 mmHg 65%
12:00 +22°C° 0 mm 1 m/s 767 mmHg 61%
13:00 +22°C° 0 mm 1 m/s 766 mmHg 62%
14:00 +22°C° 0 mm 1 m/s 766 mmHg 63%
15:00 +22°C° 0 mm 1 m/s 766 mmHg 63%
16:00 +21°C° 0 mm 1 m/s 766 mmHg 70%
17:00 +20°C° 0 mm 1 m/s 766 mmHg 76%
18:00 +19°C° 0 mm 1 m/s 766 mmHg 82%
19:00 +19°C° 0 mm 1 m/s 766 mmHg 81%
20:00 +19°C° 0 mm 1 m/s 767 mmHg 81%
21:00 +19°C° 0 mm 1 m/s 767 mmHg 81%
22:00 +18°C° 0 mm 1 m/s 767 mmHg 81%
23:00 +17°C° 0 mm 2 m/s 767 mmHg 81%

28 Janeiro, Quinta-feira

Tempo Temperatura Precipitação Vento Pressão Humidade
00:00 +17°C° 0 mm 2 m/s 767 mmHg 81%
01:00 +17°C° 0 mm 2 m/s 767 mmHg 82%
02:00 +16°C° 0 mm 1 m/s 767 mmHg 82%
03:00 +16°C° 0 mm 1 m/s 767 mmHg 83%
04:00 +16°C° 0 mm 1 m/s 767 mmHg 82%
05:00 +16°C° 0 mm 1 m/s 767 mmHg 81%
06:00 +16°C° 0 mm 1 m/s 767 mmHg 79%
07:00 +18°C° 0 mm 1 m/s 767 mmHg 74%
08:00 +19°C° 0 mm 1 m/s 768 mmHg 69%
09:00 +20°C° 0 mm 1 m/s 768 mmHg 64%
10:00 +21°C° 0 mm 1 m/s 768 mmHg 60%
11:00 +22°C° 0 mm 1 m/s 768 mmHg 56%
12:00 +23°C° 0 mm 1 m/s 768 mmHg 52%
13:00 +23°C° 0 mm 2 m/s 767 mmHg 54%
14:00 +23°C° 0 mm 2 m/s 767 mmHg 55%
15:00 +24°C° 0 mm 2 m/s 766 mmHg 56%
16:00 +21°C° 0 mm 2 m/s 766 mmHg 62%
17:00 +20°C° 0 mm 2 m/s 767 mmHg 68%
18:00 +20°C° 0 mm 1 m/s 767 mmHg 74%

29 Janeiro, Sexta-feira

Tempo Temperatura Precipitação Vento Pressão Humidade
Mostrar mais

Necessitamos do seu Consentimento

A Meteoprog e os seus Fornecedores de Serviços podem armazenar e aceder a dados pessoais como cookies, identificadores do dispositivo ou outras tecnologias semelhantes existentes no seu dispositivo e processar estes dados para personalizar conteúdos e anúncios, assim como funcionalidades nas redes sociais e análise de tráfego.

  • Armazenar e/ou aceder a informações no seu dispositivo

    Os cookies, identificadores do dispositivo ou outras informações podem ser armazenados ou acedidos no seu dispositivo, para os fins acima indicados.

  • Anúncios e conteúdos personalizados, medição de anúncios e conteúdos, dados sobre o público-alvo e desenvolvimento de produtos

    Os anúncios e os conteúdos podem ser personalizados com base num perfil. Podem ser adicionados dados adicionais para uma maior personalização dos anúncios e dos conteúdos. A eficácia dos anúncios e dos conteúdos pode ser medida. Podem ser obtidas informações sobre o público que visualizou os anúncios e os conteúdos. Estes dados podem ser usados para desenvolver ou melhorar sistemas, softwares ou a experiência do utilizador.

Ao clicar em "Eu concordo”, permitirá o uso de cookies, identificadores do dispositivo e web beacons mencionados ou outras tecnologias semelhantes. As configurações do navegador do seu dispositivo podem ser alteradas.

Para certos fins, podem ser invocados interesses legítimos ao invés de consentimento. Pode ler mais informação sobre este assunto na nossa Política de Privacidade e Cookies.